Location: *
(53.1833°S, 173.2167°W)
Time: 22:28:37
(UTC+00:00)

Daily predictions for brighter satellites

Satellite Brightness Start Highest point End
(mag) Time Altitude Azimuth Time Altitude Azimuth Time Altitude Azimuth
ATLAS 2AS CENTAUR R/B 4.3 13:33:53 30° SSE 13:33:53 30° SSE 13:37:51 10° SE
Cosmos 2263 Rocket 4.5 13:57:50 20° SE 13:57:50 20° SE 14:00:44 10° E
Cosmos 2369 Rocket 4.5 14:05:12 18° SSE 14:05:12 18° SSE 14:06:39 10° SSE
ADEOS Rocket 4.4 14:13:25 37° SSE 14:13:25 37° SSE 14:18:15 10° S
Cosmos 1943 Rocket 4.5 14:52:25 15° S 14:52:25 15° S 14:54:49 10° SSE
ATLAS 5 CENTAUR R/B 2.9 15:13:49 61° NNE 15:14:29 64° NE 15:21:15 10° SE
Cosmos 2219 4.2 15:13:08 35° S 15:14:48 44° SE 15:20:12 10° ENE
ATLAS 2AS CENTAUR R/B 3.8 15:21:19 32° SSW 15:23:25 37° S 15:30:15 10° ESE
Cosmos 1697 Rocket 3.5 15:29:32 36° NNE 15:31:14 47° ENE 15:36:41 10° SE
Cosmos 1633 Rocket 4.4 15:34:39 34° SSE 15:34:39 34° SSE 15:37:16 10° SSE
Cosmos 1656 3.9 15:35:00 61° S 15:35:00 61° S 15:39:36 10° SSE
ACS3 Solar Sail 3.1 15:31:07 10° NE 15:36:55 40° ESE 15:42:49 10° S
Cosmos 1703 Rocket 4.3 15:39:45 46° SE 15:40:27 51° ESE 15:44:46 10° NNE
Cosmos 2263 Rocket 2.4 15:39:34 41° SSW 15:41:29 66° SE 15:47:03 10° NE
Cosmos 1816 Rocket 4.4 15:35:26 10° SSW 15:41:53 74° W 15:48:11 10° N
SL-16 R/B 3.1 15:36:45 10° SSE 15:43:00 56° ENE 15:49:10 10° N
Tsikada Rocket 4.1 15:39:08 10° S 15:45:41 77° ESE 15:52:09 10° NNE
Cosmos 2369 Rocket 3.9 15:46:58 19° SSW 15:46:58 19° SSW 15:50:24 10° SSE
Cosmos 2173 Rocket 3.8 15:48:24 69° W 15:48:44 70° WSW 15:55:01 10° S
Cosmos 1125 Rocket 4.1 15:50:51 45° SSW 15:50:51 45° SSW 15:54:56 10° SSE
Cosmos 2227 Rocket 2.6 15:56:45 48° NNW 15:56:45 48° NNW 16:01:02 10° NNE
Cosmos 1758 3.9 15:57:14 53° ESE 15:57:14 53° ESE 16:00:41 10° SSE
ADEOS Rocket 4.1 16:00:22 30° SW 16:00:22 30° SW 16:03:53 10° SSW
Cosmos 2082 4.0 15:56:24 22° SSW 16:00:06 64° SE 16:05:43 10° NE
Cosmos 1459 Rocket 4.0 15:59:41 57° WNW 16:00:32 63° WSW 16:06:57 10° S
RESURS DK-1 3.6 16:07:17 27° S 16:08:50 38° SE 16:12:39 10° ENE
Cosmos 2233 Rocket 4.1 16:02:46 10° N 16:09:06 80° E 16:15:32 10° SSE
Cosmos 1607 4.2 16:08:16 45° WSW 16:09:18 49° SSW 16:15:32 10° SE
Cosmos 1461 3.5 16:11:26 41° NE 16:11:26 41° NE 16:13:53 10° NE
GEOS 3 Rocket 4.3 16:06:57 10° SE 16:11:49 38° SSW 16:12:20 37° SW
Cosmos 1802 Rocket 4.0 16:09:40 32° NNW 16:12:51 66° WSW 16:19:23 10° S
SL-08 R/B 4.3 16:07:41 10° NNW 16:13:52 83° W 16:20:06 10° S
Cosmos 1269 Rocket 3.9 16:15:08 37° SW 16:17:16 70° WNW 16:22:33 10° NNE
Cosmos 192 4.3 16:19:30 57° WNW 16:20:15 67° WSW 16:25:14 10° SSE
Aureole 3 4.4 16:14:00 10° S 16:20:28 78° ESE 16:25:50 10° NNE
CZ-2D R/B 3.1 16:22:49 10° NNE 16:26:15 72° ESE 16:27:43 32° S
Helios 1A Rocket 2.4 16:23:17 10° SSE 16:26:59 82° WSW 16:27:01 82° W
Cosmos 2298 Rocket 4.1 16:26:20 45° WNW 16:27:39 58° WSW 16:32:58 10° SSE
UNK 3.8 16:23:03 10° SSE 16:27:44 77° ENE 16:32:22 10° N
Cosmos 1818 3.4 16:27:54 37° SW 16:30:06 73° NW 16:35:30 10° NNE
Cosmos 2100 Rocket 4.4 16:30:37 37° W 16:31:18 38° WSW 16:37:05 10° S
IRS-1C 4.0 16:26:09 10° NNE 16:31:32 81° WNW 16:36:59 10° SSW
Cosmos 1980 Rocket 2.6 16:27:51 10° NNW 16:33:27 64° ENE 16:39:08 10° SE
Cosmos 2061 Rocket 3.9 16:28:04 10° NNW 16:34:27 75° WSW 16:40:50 10° S
Cosmos 1271 Rocket 2.3 16:34:02 43° SSW 16:35:08 82° W 16:38:42 10° N
SL-4 R/B 3.3 16:34:29 24° NNW 16:36:19 35° NNE 16:40:08 10° E
SL-12 R/B(2) 4.2 16:29:17 15° SW 16:37:05 88° SE 16:44:43 10° NE
Cosmos 1943 Rocket 4.5 16:34:54 10° SSW 16:37:54 14° SSE 16:40:54 10° SE
Cosmos 1470 Rocket 3.7 16:39:51 45° W 16:40:09 46° WSW 16:44:25 10° S
ARIANE 5 R/B 2.4 16:39:26 10° N 16:44:28 66° WNW 16:49:33 10° SSW
Meteor 2-10 Rocket 3.9 16:40:22 16° NW 16:44:52 52° WSW 16:50:34 10° S
Aureole 3 Rocket 4.3 16:44:21 10° NNE 16:47:07 30° E 16:49:59 10° SSE
DMSP B5D2-2 4.4 16:44:48 10° S 16:49:50 44° WSW 16:52:53 22° NW
Meteor 1-24 Rocket 3.7 16:45:22 10° SSW 16:50:41 54° W 16:55:52 10° N
Cosmos 1933 Rocket 3.5 16:47:45 10° NNW 16:52:13 68° WSW 16:56:44 10° S
Cosmos 2016 Rocket 4.3 16:47:36 14° NW 16:52:40 43° WSW 16:58:47 10° S
Spot 4 Rocket 4.5 16:49:06 10° NNE 16:54:12 65° ESE 16:59:21 10° SSW
ATLAS 5 CENTAUR R/B 2.9 16:53:49 25° W 16:58:02 54° SSW 17:04:27 10° SE
Cosmos 2219 3.5 16:55:06 18° SW 16:59:00 45° WNW 17:04:19 10° N
Meteor 1-15 Rocket 4.2 16:55:40 10° NNW 17:01:24 68° WSW 17:07:07 10° S
Radarsat 4.5 16:57:18 10° NNE 17:02:33 78° WNW 17:07:50 10° SSW
Cosmos 407 Rocket 3.5 16:57:54 10° SSW 17:03:15 73° WNW 17:08:35 10° NNE
Cosmos 1869 Rocket 3.5 16:58:49 10° NNW 17:03:19 79° W 17:07:52 10° S
Cosmos 2242 Rocket 3.5 17:00:23 10° SSW 17:04:53 85° W 17:09:20 10° N
CZ-2D R/B 3.2 17:01:12 10° NNE 17:05:05 86° WNW 17:09:03 10° SSW
Meteor 1-12 Rocket 4.3 17:04:12 10° NNW 17:10:03 87° WSW 17:16:06 10° SSE
Cosmos 2227 4.3 17:05:14 10° SSW 17:11:05 87° ESE 17:16:55 10° NNE
Cosmos 1844 Rocket 3.0 17:05:26 10° SSW 17:11:06 69° SE 17:16:41 10° NE
SL-19 R/B 4.1 17:06:22 10° NNE 17:11:39 85° WNW 17:17:00 10° SSW
Cosmos 1140 Rocket 4.0 17:08:18 12° SW 17:12:45 38° WNW 17:17:34 10° N
SJ 16-02 3.3 17:10:10 10° S 17:13:57 28° SE 17:17:43 10° ENE
Cosmos 1697 Rocket 3.1 17:11:18 18° WNW 17:15:17 43° SW 17:20:45 10° SSE
ATLAS 2AS CENTAUR R/B 3.3 17:08:44 11° SW 17:15:42 60° SSE 17:23:06 10° ENE
Intercosmos 24 3.7 17:12:43 10° SSW 17:16:19 55° W 17:20:03 10° N
Meteor 2-5 Rocket 4.2 17:11:23 10° SSW 17:16:40 38° W 17:21:49 10° NNW
Cosmos 2251 Rocket 3.5 17:13:22 10° SSW 17:18:45 78° WNW 17:24:01 10° NNE
AQUARIUS 4.1 17:14:58 10° N 17:19:26 71° WNW 17:23:58 10° SSW
SMAP 3.3 17:14:57 10° N 17:19:32 50° W 17:24:11 10° SSW
ACS3 Solar Sail 2.0 17:14:06 10° N 17:20:12 51° W 17:26:27 10° SSW
IGS 5A 3.5 17:17:04 10° N 17:21:03 53° W 17:25:05 10° SSW
Cosmos 1953 2.0 17:17:29 10° NNW 17:21:15 73° WSW 17:25:06 10° S
YAOGAN 1 3.8 17:17:44 10° NE 17:21:50 43° ESE 17:25:58 10° S
CZ-4 R/B 4.3 17:21:16 10° ESE 17:22:34 11° SE 17:23:52 10° SE
Cosmos 1674 Rocket 4.1 17:19:52 10° S 17:24:22 65° ESE 17:28:50 10° NNE
Cosmos 1025 Rocket 4.4 17:20:21 10° S 17:24:34 41° ESE 17:28:46 10° NE
Cosmos 2263 Rocket 3.0 17:21:18 14° SW 17:24:59 28° WNW 17:29:38 10° NNW
SL-16 R/B 3.1 17:20:38 10° S 17:26:23 37° WSW 17:32:04 10° WNW
BREEZE-M DEB (TANK) 2.7 17:23:14 14° WNW 17:26:59 45° N 17:29:20 10° ENE
Cosmos 1328 4.1 17:24:10 10° SSW 17:27:40 37° W 17:31:07 10° NNW
Cosmos 2221 Rocket 4.5 17:23:28 10° S 17:28:01 55° ESE 17:32:31 10° NNE
CZ-4C R/B 3.0 17:21:45 10° NW 17:30:18 86° NE 17:37:10 10° SE
CORIOLIS 4.5 17:25:41 10° N 17:30:52 44° W 17:36:06 10° SSW
Cosmos 2369 Rocket 4.3 17:30:17 10° SSW 17:32:45 13° S 17:35:13 10° SSE
Cosmos 1092 Rocket 4.4 17:27:07 10° S 17:33:32 71° ESE 17:39:49 10° NNE
COSMO-SKYMED 1 3.5 17:31:41 10° SSE 17:36:00 54° E 17:40:16 10° N
USA 290 2.6 17:33:13 10° SW 17:36:33 49° WNW 17:39:48 10° N
Cosmos 676 Rocket 4.2 17:32:00 10° SSW 17:37:17 76° ESE 17:42:32 10° NNE
Cosmos 2227 Rocket 3.9 17:38:40 12° W 17:38:40 12° W 17:40:15 10° WNW
RESURS DK-1 3.1 17:42:42 10° SW 17:46:18 33° WNW 17:49:55 10° N
Cosmos 1733 Rocket 3.0 17:42:38 10° NNW 17:47:07 72° WSW 17:51:38 10° S
Orbus 7S? 4.2 17:40:31 12° WSW 17:47:41 63° S 17:51:21 10° E
In-Cosmos 22 Rocket 4.2 17:41:57 10° SSW 17:47:49 80° W 17:53:27 10° N
Radarsat Rocket 4.5 17:40:54 10° NNE 17:48:20 85° ESE 17:54:56 10° SSW
Resurs 01 Rocket 3.5 17:49:21 10° NE 17:53:15 30° ESE 17:57:11 10° S
Landsat 7 3.9 17:50:45 10° N 17:55:22 54° W 18:00:04 10° SSW
NOAA 6 4.1 17:54:57 10° NNE 18:00:12 90° W 18:05:29 10° SSW
SL-16 R/B 2.6 17:55:35 10° NNW 18:01:15 71° ENE 18:06:58 10° SE
Meteor 1-11 4.4 17:56:45 10° SSW 18:02:39 87° ESE 18:08:24 10° NNE
CZ-4B R/B 4.2 17:58:43 10° NNE 18:02:46 77° ESE 18:06:59 10° SSW
Cosmos 2034 Rocket 4.0 17:56:58 10° NNW 18:03:12 74° WSW 18:09:33 10° S
Cosmos 2278 Rocket 4.0 17:59:23 10° SSW 18:04:11 26° SE 18:08:55 10° E
BREEZE-M DEB (TANK) 3.9 17:50:31 10° WNW 18:04:16 61° N 18:07:39 10° E
USA 305 3.0 18:05:33 10° WNW 18:09:33 67° NNE 18:13:24 10° ESE
